Location: Ago
(8.4667°N, 4.4833°E)
Time: 23:08:19
(UTC+00:00)

Cosmos 1072 Rocket - Pass Details

Date: 18 September 2020
Orbit: 949 x 1008 km, 82.9° (Epoch: 20 October)

Event Time Altitude Azimuth Distance (km) Brightness Sun altitude
Rises 18:36:19 0° 178° (S) 3,620 7.4 -14.7°
Reaches altitude 10° 18:38:49 10° 176° (S) 2,679 6.7 -15.3°
Maximum altitude 18:44:54 70° 93° (E) 1,018 4.4 -16.8°
Drops below altitude 10° 18:51:04 10° 10° (N) 2,712 6.8 -18.3°
Sets 18:53:36 0° 8° (N) 3,667 7.5 -19.0°
